FW1044 Weather Reports


Display with metric or nautical units.
time (UTC)temp
F
wind
direction
speed
MPH
gust
MPH
rain 1hr
in
rain 24hr
in
rain mn
in
humidity
%
barometer
mb
20190218043516 42 0.0 0.0 0.00 0.00 0.00 80 1015.2
20190218042521 42 0.0 0.0 0.00 0.00 0.00 80 1015.3
20190218041525 42 0.0 0.0 0.00 0.00 0.00 81 1015.3
20190218040530 42 0.0 0.0 0.00 0.00 0.00 83 1015.3
20190218035517 42 0.0 0.0 0.00 0.00 0.00 85 1015.1
20190218034522 42 247 0.0 1.0 0.00 0.00 0.00 85 1015.0
20190218033527 43 282 1.0 2.0 0.00 0.00 0.00 85 1014.8
20190218032526 43 265 1.0 1.0 0.00 0.00 0.00 85 1014.6
20190218031519 43 186 0.0 1.0 0.00 0.00 0.00 83 1014.5
20190218030524 44 168 0.0 2.0 0.00 0.00 0.00 83 1014.4
20190218025522 44 197 0.0 1.0 0.00 0.00 0.00 81 1014.3
20190218024515 45 187 1.0 1.0 0.00 0.00 0.00 80 1014.0
20190218023520 45 164 0.0 2.0 0.00 0.00 0.00 80 1013.7
20190218022519 45 309 0.0 2.0 0.00 0.00 0.00 79 1013.7
20190218021518 46 0.0 3.0 0.00 0.00 0.00 77 1013.6
20190218020517 47 143 1.0 3.0 0.00 0.00 0.00 76 1013.6
20190218015516 47 217 1.0 4.0 0.00 0.00 0.00 74 1013.1
20190218014526 48 348 2.0 3.0 0.00 0.00 0.00 73 1013.0
20190218013531 49 334 2.0 4.0 0.00 0.00 0.00 71 1013.0
20190218012518 50 245 2.0 4.0 0.00 0.00 0.00 70 1012.8
20190218011523 50 303 2.0 4.0 0.00 0.00 0.00 70 1012.8
20190218010528 50 191 2.0 5.0 0.00 0.00 0.00 70 1012.9
20190218005515 50 293 3.0 4.0 0.00 0.00 0.00 70 1012.8
20190218004520 51 196 3.0 6.0 0.00 0.00 0.00 68 1012.6
20190218003524 51 108 3.0 5.0 0.00 0.00 0.00 65 1012.6
20190218002529 52 313 3.0 5.0 0.00 0.00 0.00 65 1012.6
20190218001516 51 283 4.0 7.0 0.00 0.00 0.00 65 1012.5
20190218000521 52 269 3.0 5.0 0.00 0.00 0.00 64 1012.5
20190217235526 52 202 3.0 5.0 0.00 0.00 0.00 62 1012.7
20190217234531 51 244 3.0 4.0 0.00 0.00 0.00 64 1012.7
20190217233518 52 292 3.0 6.0 0.00 0.00 0.00 61 1012.7
20190217232523 54 249 2.0 4.0 0.00 0.00 0.00 60 1012.7
20190217231528 54 183 3.0 4.0 0.00 0.00 0.00 58 1012.8
20190217230532 54 244 4.0 5.0 0.00 0.00 0.00 58 1013.0
20190217225519 56 319 4.0 5.0 0.00 0.00 0.00 53 1012.7
20190217224524 57 282 3.0 6.0 0.00 0.00 0.00 53 1012.7
20190217223529 56 287 4.0 7.0 0.00 0.00 0.00 53 1012.7
20190217222516 57 307 3.0 5.0 0.00 0.00 0.00 52 1012.6
20190217221521 55 272 3.0 6.0 0.00 0.00 0.00 54 1012.6
20190217220526 56 274 4.0 5.0 0.00 0.00 0.00 53 1012.7
20190217215531 57 261 3.0 4.0 0.00 0.00 0.00 52 1012.7
20190217214517 57 173 3.0 4.0 0.00 0.00 0.00 54 1012.7
20190217213522 56 241 3.0 7.0 0.00 0.00 0.00 53 1012.9
20190217212528 55 82 2.0 4.0 0.00 0.00 0.00 55 1012.9
20190217211532 55 264 2.0 4.0 0.00 0.00 0.00 53 1013.0
20190217210519 56 337 2.0 5.0 0.00 0.00 0.00 50 1013.2
20190217205524 57 316 3.0 5.0 0.00 0.00 0.00 45 1013.1
20190217204528 55 328 3.0 6.0 0.00 0.00 0.00 52 1013.5
20190217203516 55 339 3.0 5.0 0.00 0.00 0.00 53 1013.8
20190217202521 55 317 3.0 5.0 0.00 0.00 0.00 53 1013.8
20190217201525 55 304 3.0 4.0 0.00 0.00 0.00 53 1013.9
20190217200530 55 318 2.0 5.0 0.00 0.00 0.00 56 1014.1
20190217195517 54 289 3.0 5.0 0.00 0.00 0.00 58 1014.2
20190217194522 53 271 3.0 4.0 0.00 0.00 0.00 62 1014.2
20190217193527 52 299 2.0 4.0 0.00 0.00 0.00 65 1014.3
20190217192532 51 327 2.0 5.0 0.00 0.00 0.00 66 1014.4
20190217191518 50 345 3.0 6.0 0.00 0.00 0.00 67 1014.3
20190217190523 49 308 3.0 4.0 0.00 0.00 0.00 69 1014.2
20190217185528 48 333 3.0 5.0 0.00 0.00 0.00 71 1014.2
20190217184515 47 321 3.0 5.0 0.00 0.00 0.00 73 1014.2
20190217183520 47 335 2.0 3.0 0.00 0.00 0.00 75 1014.4
20190217182525 46 321 3.0 5.0 0.00 0.00 0.00 76 1014.4
20190217181524 46 314 2.0 3.0 0.00 0.00 0.00 79 1014.3
20190217180517 45 319 3.0 4.0 0.00 0.00 0.00 80 1014.2
20190217175521 45 2 3.0 5.0 0.00 0.00 0.00 84 1014.3
20190217174521 44 357 2.0 5.0 0.00 0.00 0.00 89 1014.3
20190217173519 43 270 2.0 4.0 0.00 0.00 0.00 92 1014.4
20190217172518 42 254 2.0 3.0 0.00 0.00 0.00 93 1014.5
20190217171517 41 324 1.0 2.0 0.00 0.00 0.00 94 1014.4
20190217170516 40 0.0 0.0 0.00 0.00 0.00 94 1014.3
20190217165515 39 252 0.0 2.0 0.00 0.00 0.00 94 1014.3
20190217164520 38 0.0 0.0 0.00 0.00 0.00 94 1014.3
20190217163525 37 0.0 0.0 0.00 0.00 0.00 94 1014.3
20190217162529 37 0.0 0.0 0.00 0.00 0.00 94 1014.2
20190217161516 37 250 1.0 2.0 0.00 0.00 0.00 94 1014.1
20190217160521 36 0.0 2.0 0.00 0.00 0.00 94 1014.1
20190217155527 36 0.0 0.0 0.00 0.00 0.00 94 1014.0
20190217154531 35 0.0 0.0 0.00 0.00 0.00 94 1013.9
20190217153518 35 0.0 0.0 0.00 0.00 0.00 94 1013.8
20190217152523 35 0.0 0.0 0.00 0.00 0.00 94 1013.7
20190217151528 36 0.0 0.0 0.00 0.00 0.00 94 1013.7
20190217150515 36 0.0 0.0 0.00 0.00 0.00 94 1013.6
20190217145520 36 0.0 0.0 0.00 0.00 0.00 94 1013.5
20190217144524 36 0.0 0.0 0.00 0.00 0.00 94 1013.4
20190217143530 36 0.0 0.0 0.00 0.00 0.00 94 1013.5
20190217142516 37 0.0 0.0 0.00 0.00 0.00 94 1013.5
20190217141521 37 0.0 0.0 0.00 0.00 0.00 94 1013.4
20190217140526 37 0.0 0.0 0.00 0.00 0.00 94 1013.4
20190217135531 37 0.0 0.0 0.00 0.00 0.00 94 1013.3
20190217134518 37 247 0.0 1.0 0.00 0.00 0.00 94 1013.1
20190217133523 38 213 0.0 1.0 0.00 0.00 0.00 94 1013.1
20190217132528 38 0.0 0.0 0.00 0.00 0.00 94 1013.2
20190217131533 39 0.0 0.0 0.00 0.00 0.00 94 1013.1
20190217130519 39 191 0.0 1.0 0.00 0.03 0.00 94 1013.1
20190217125524 39 0.0 0.0 0.00 0.03 0.00 93 1012.9
20190217124529 39 0.0 0.0 0.00 0.03 0.00 93 1013.4
20190217123516 39 0.0 0.0 0.00 0.03 0.00 93 1013.3
20190217122521 39 270 0.0 1.0 0.00 0.03 0.00 93 1013.3
20190217121526 39 0.0 0.0 0.00 0.03 0.00 93 1013.3
20190217120530 39 0.0 0.0 0.00 0.03 0.00 93 1013.3
20190217115517 40 0.0 0.0 0.00 0.03 0.00 93 1013.5
20190217114522 40 0.0 0.0 0.00 0.03 0.00 93 1013.5
20190217113527 40 0.0 0.0 0.00 0.03 0.00 93 1013.6
20190217112532 40 0.0 0.0 0.00 0.04 0.00 93 1013.7
20190217111518 41 0.0 0.0 0.00 0.04 0.00 93 1013.9
20190217110523 41 202 0.0 1.0 0.00 0.04 0.00 93 1014.1
20190217105528 41 238 0.0 1.0 0.00 0.04 0.00 93 1014.2
20190217104515 42 293 2.0 4.0 0.00 0.04 0.00 93 1014.1
20190217103520 42 323 2.0 4.0 0.00 0.04 0.00 93 1014.3
20190217102525 41 142 2.0 4.0 0.00 0.06 0.00 93 1014.5
20190217101530 40 0.0 0.0 0.00 0.06 0.00 93 1014.7
20190217100516 40 0.0 0.0 0.00 0.06 0.00 93 1014.8
20190217095522 40 0.0 0.0 0.00 0.06 0.00 93 1014.8
20190217094526 40 0.0 0.0 0.00 0.06 0.00 93 1015.2
20190217093525 40 0.0 0.0 0.00 0.06 0.00 93 1015.4
20190217092518 40 0.0 0.0 0.00 0.06 0.00 93 1015.6
20190217091523 40 0.0 0.0 0.00 0.06 0.00 92 1015.9
20190217090522 40 0.0 0.0 0.00 0.06 0.00 92 1016.2
20190217085520 40 0.0 0.0 0.00 0.06 0.00 92 1016.5
20190217084520 40 0.0 0.0 0.00 0.06 0.00 92 1016.3
20190217083519 40 0.0 0.0 0.00 0.06 0.00 92 1016.4
20190217082518 40 0.0 0.0 0.00 0.06 0.00 92 1016.5
20190217081516 40 0.0 0.0 0.00 0.06 0.00 92 1016.6
20190217080515 39 0.0 0.0 0.00 0.06 0.00 92 1016.8
20190217075526 39 0.0 0.0 0.00 0.06 0.06 93 1016.8
20190217074531 38 0.0 0.0 0.00 0.06 0.06 93 1016.7
20190217073517 38 0.0 0.0 0.00 0.06 0.06 92 1016.8
20190217072522 38 0.0 0.0 0.00 0.06 0.06 92 1017.0
20190217071527 38 0.0 0.0 0.00 0.06 0.06 92 1017.0
20190217070532 38 0.0 0.0 0.00 0.06 0.06 92 1017.0
20190217065519 38 0.0 0.0 0.00 0.06 0.06 92 1017.0
20190217064524 38 0.0 0.0 0.00 0.06 0.06 92 1017.2
20190217063529 38 0.0 0.0 0.00 0.06 0.06 92 1017.2
20190217062516 38 0.0 0.0 0.00 0.06 0.06 92 1017.2
20190217061520 38 0.0 0.0 0.00 0.07 0.06 92 1017.2
20190217060525 38 0.0 0.0 0.00 0.07 0.06 92 1017.3
20190217055530 38 0.0 0.0 0.00 0.13 0.06 91 1017.4
20190217054517 39 0.0 0.0 0.00 0.15 0.06 91 1017.2
20190217053522 39 0.0 0.0 0.00 0.15 0.06 90 1017.1
20190217052527 40 0.0 0.0 0.00 0.15 0.06 89 1017.0
20190217051531 40 0.0 0.0 0.00 0.15 0.06 89 1016.9
20190217050518 40 0.0 0.0 0.00 0.15 0.06 89 1016.9
20190217045523 40 186 0.0 2.0 0.00 0.15 0.06 89 1017.0
20190217044528 40 202 0.0 1.0 0.00 0.15 0.06 90 1017.2